This is the latest recevied weather packets stored in our database for station/object SQ2WB-13. If no packets are shown the sender has not sent any weather packets the latest 10 day(s).
| Time | Temp. | Humidity | Pressure | Rain* | Wind** | Luminosity | Snow |
|---|---|---|---|---|---|---|---|
| 1787571002 | 20° C | 69% | 1011.5 hPa | 0 mm | - | - | - |
| 1787570102 | 20.56° C | 67% | 1011.5 hPa | 0 mm | - | - | - |
| 1787569201 | 20.56° C | 66% | 1011.5 hPa | 0 mm | - | - | - |
| 1787568301 | 20.56° C | 66% | 1011.5 hPa | 0 mm | - | - | - |
| 1787567401 | 20° C | 68% | 1011.5 hPa | 0 mm | - | - | - |
| 1787566502 | 18.89° C | 71% | 1011.5 hPa | 0 mm | - | - | - |
| 1787565601 | 18.89° C | 73% | 1011.5 hPa | 0 mm | - | - | - |
| 1787564702 | 17.78° C | 74% | 1011.5 hPa | 0 mm | - | - | - |
| 1787563802 | 16.67° C | 81% | 1011.5 hPa | 0 mm | - | - | - |
| 1787562903 | 16.67° C | 80% | 1011.5 hPa | 0 mm | - | - | - |
| 1787562001 | 17.78° C | 83% | 1011.5 hPa | 0 mm | - | - | - |
| 1787561102 | 15.56° C | 88% | 1011.5 hPa | 0 mm | - | - | - |
| 1787560201 | 15° C | 92% | 1011.5 hPa | 0 mm | - | - | - |
| 1787559302 | 15° C | 89% | 1011.5 hPa | 0 mm | - | - | - |
| 1787558401 | 15° C | 91% | 1011.5 hPa | 0 mm | - | - | - |
| 1787557501 | 15° C | 90% | 1011.1 hPa | 0 mm | - | - | - |
| 1787556601 | 15° C | 91% | 1011.1 hPa | 0 mm | - | - | - |
| 1787555701 | 15° C | 92% | 1011.1 hPa | 0 mm | - | - | - |
| 1787554802 | 13.89° C | 93% | 1011.1 hPa | 0 mm | - | - | - |
| 1787553902 | 13.89° C | 94% | 1011.1 hPa | 0 mm | - | - | - |
| 1787553001 | 13.89° C | 96% | 1011.1 hPa | 0 mm | - | - | - |
| 1787552102 | 13.89° C | 97% | 1011.1 hPa | 0 mm | - | - | - |
| 1787551202 | 12.78° C | 96% | 1010.8 hPa | 0 mm | - | - | - |
| 1787550302 | 12.78° C | 95% | 1010.8 hPa | 0 mm | - | - | - |
| 1787549402 | 12.78° C | 96% | 1010.8 hPa | 0 mm | - | - | - |
* Rain latest hour (hover to see other rain measurements)
** Current wind speed in m/s (hover to see current wind gust speed)